Regional Weather Roundup
Issued by NWS

Home | Current Version | Previous Version | Text Only | Print | Product List | Glossary Off
Versions: 1 2 3 4 5 6 7 8 9 10 11 12 13 14 15 16 17 18 19 20 21 22 23 24 25 26 27 28 29 30 31 32 33 34 35 36 37 38 39 40 41 42 43 44 45 46 47 48 49 50

000
ASUS45 KCYS 272210
RWRWY

WYOMING REGIONAL WEATHER ROUNDUP
NATIONAL WEATHER SERVICE CHEYENNE WY
400 PM MDT FRI MAR 27 2015

NOTE:  "FAIR" INDICATES FEW OR NO CLOUDS BELOW 12,000 FEET
WITH NO SIGNIFICANT WEATHER AND/OR OBSTRUCTIONS TO VISIBILITY.

WYZ001-272300-
YELLOWSTONE NATIONAL PARK

CITY           SKY/WX    TMP DP  RH WIND       PRES   REMARKS
LK YELLOWSTONE   N/A     53  26  35 VRB7G20   30.27F
W YELLOWSTONE  NOT AVBL

$$
WYZ002>013-054>058-071-098>099-272300-
NORTHERN WYOMING

CITY           SKY/WX    TMP DP  RH WIND       PRES   REMARKS
JACKSON        SUNNY     55  30  38 CALM      30.23F
CODY           FAIR      66  27  22 NW16      30.07S
GREYBULL       FAIR      71  28  20 SW3       30.01F
WORLAND        FAIR      71  31  22 VRB5      30.03F
SHERIDAN       FAIR      69  27  20 NW26G32   29.98F
BUFFALO        FAIR      68  30  24 N21G30    30.03
GILLETTE       FAIR      67  32  27 NW20G31   29.99F
HULETT         FAIR      64  32  29 NW14G22   29.99F
NEWCASTLE      FAIR      63  30  29 NW20G29   29.99F

$$
WYZ014>020-022>026-101>103-272300-
CENTRAL WYOMING

CITY           SKY/WX    TMP DP  RH WIND       PRES   REMARKS
BIG PINEY      FAIR      65  25  22 N14G21    30.24F
PINEDALE       FAIR      57  28  33 NW13G23   30.26F
DUBOIS         FAIR      59  25  27 NW14G24   30.20F
LANDER         FAIR      73  20  13 NW18G26   30.06F
RIVERTON       FAIR      72  22  15 NW23G32   30.07F
CASPER         FAIR      67  24  19 NW20G32   30.08F
DOUGLAS        FAIR      70  25  18 NW28G36   30.03F

$$
WYZ021-027>030-104>119-272300-
SOUTHERN WYOMING

CITY           SKY/WX    TMP DP  RH WIND       PRES   REMARKS
EVANSTON       FAIR      64  28  25 W12       30.27F
KEMMERER       FAIR      61  30  31 NW13      30.28F
FORT BRIDGER   FAIR      67  26  21 NW12G20   30.29F
ROCK SPRINGS   FAIR      66  27  23 W24G33    30.21F
DIXON          FAIR      66  24  19 W14G20    30.22F
RAWLINS        FAIR      65  20  17 NW18G24   30.17F
SARATOGA       FAIR      61  23  23 MISG      30.20F
LARAMIE        PTSUNNY   62  24  23 NW26G39   30.15F
CHEYENNE       FAIR      64  24  21 N22G36    30.09F
TORRINGTON     FAIR      71  27  19 NW20G32   29.98F
PINE BLUFFS    MOCLDY    68  30  24 NW20G26   30.05F

$$


USA.gov is the U.S. government's official web portal to all federal, state and local government web resources and services.